GPS BIIR-14M

Last updated on Sat Jun 27 2026 00:02:55 GMT+0000 (Coordinated Universal Time)

1 28874U 05038A 26177.42321523 -.00000047 00000+0 00000+0 0 9990 2 28874 54.8704 272.8045 0127987 296.2383 134.3021 2.00565172152026
UTC large
Height (km)
Speed (km/s)
/
Latitude / Longitude
Inclination (degrees)
Orbital Period (minutes)
Azimuth
Elevation
Range (km)
Doppler Factor

Next 0 passes for location: London (51.5072 / 0.1276)

No passes found over London.
GPS BIIR-14M